DLH05U LEBL-EDDM

Flight info

Callsign DLH05U
Flight time 1h 32m
Altitude 38000
Route AGENA DCT BODEQ DCT LUMAS DCT UNANA DCT STP DCT RAPED DCT PIGOS DCT EKSID DCT NOSTA DCT NOPMU DCT ROBAS DCT TAGIP DCT GUNGO DCT IVKAL T102 NINUR T101 BETOS BETOS1B
Aircraft A21N/M-SDE3FGHIRWY/LB1

Departure

Time 2026-05-06 17:15
Airport Josep Tarradellas Barcelona-El Prat Airport (LEBL)

Arrival

Time 2026-05-06 18:47
Airport Munich Airport (EDDM)
Time Latitude Longitude Altitude Speed Heading
2026-05-06 16:54 41.28941 2.07782 24 ft 0 kts 335°
2026-05-06 17:02 41.28938 2.07783 24 ft 2 kts 335°
2026-05-06 17:02 41.28925 2.07792 24 ft 2 kts 335°
2026-05-06 17:02 41.28911 2.07801 24 ft 2 kts 335°
2026-05-06 17:02 41.28897 2.07809 24 ft 2 kts 335°
2026-05-06 17:03 41.28884 2.07819 24 ft 2 kts 313°
2026-05-06 17:03 41.28876 2.07836 24 ft 2 kts 287°
2026-05-06 17:03 41.28875 2.07855 24 ft 2 kts 260°
2026-05-06 17:03 41.28880 2.07873 24 ft 2 kts 239°
2026-05-06 17:04 41.28886 2.07891 24 ft 2 kts 247°
2026-05-06 17:04 41.28890 2.07903 24 ft 0 kts 245°
2026-05-06 17:04 41.28891 2.07904 24 ft 0 kts 245°
2026-05-06 17:07 41.28890 2.07904 24 ft 0 kts 245°
2026-05-06 17:07 41.28889 2.07899 24 ft 1 kts 245°
2026-05-06 17:07 41.28875 2.07868 24 ft 6 kts 231°
2026-05-06 17:07 41.28823 2.07867 24 ft 10 kts 155°
2026-05-06 17:08 41.28742 2.07917 24 ft 13 kts 155°
2026-05-06 17:08 41.28648 2.07973 24 ft 9 kts 156°
2026-05-06 17:08 41.28631 2.08057 24 ft 13 kts 70°
2026-05-06 17:08 41.28675 2.08190 24 ft 17 kts 65°
2026-05-06 17:09 41.28734 2.08358 24 ft 21 kts 66°
2026-05-06 17:09 41.28801 2.08556 24 ft 25 kts 65°
2026-05-06 17:09 41.28878 2.08779 24 ft 27 kts 66°
2026-05-06 17:09 41.28960 2.09018 24 ft 29 kts 65°
2026-05-06 17:10 41.29044 2.09264 24 ft 29 kts 65°
2026-05-06 17:10 41.29126 2.09500 24 ft 26 kts 66°
2026-05-06 17:10 41.29189 2.09684 24 ft 16 kts 66°
2026-05-06 17:10 41.29225 2.09794 24 ft 11 kts 66°
2026-05-06 17:11 41.29260 2.09896 24 ft 12 kts 66°
2026-05-06 17:11 41.29277 2.10001 24 ft 11 kts 100°
2026-05-06 17:11 41.29263 2.10060 24 ft 2 kts 110°
2026-05-06 17:11 41.29262 2.10064 24 ft 0 kts 110°
2026-05-06 17:12 41.29259 2.10074 24 ft 3 kts 110°
2026-05-06 17:12 41.29242 2.10136 24 ft 10 kts 109°
2026-05-06 17:12 41.29251 2.10241 24 ft 10 kts 75°
2026-05-06 17:13 41.29205 2.10273 24 ft 10 kts 223°
2026-05-06 17:13 41.29192 2.10239 24 ft 0 kts 246°
2026-05-06 17:14 41.29190 2.10235 24 ft 1 kts 246°
2026-05-06 17:14 41.29121 2.10033 24 ft 60 kts 245°
2026-05-06 17:15 41.28847 2.09233 24 ft 126 kts 245°
2026-05-06 17:15 41.28432 2.07981 191 ft 161 kts 244°
2026-05-06 17:15 41.27959 2.06645 774 ft 161 kts 227°
2026-05-06 17:15 41.26977 2.05982 1345 ft 163 kts 191°
2026-05-06 17:16 41.25852 2.05829 1898 ft 170 kts 181°
2026-05-06 17:16 41.24610 2.05830 2296 ft 189 kts 178°
2026-05-06 17:16 41.23249 2.05887 2754 ft 204 kts 180°
2026-05-06 17:16 41.21758 2.05900 3238 ft 220 kts 180°
2026-05-06 17:17 41.20197 2.05870 3779 ft 233 kts 183°
2026-05-06 17:17 41.18544 2.05787 4379 ft 245 kts 184°
2026-05-06 17:17 41.16818 2.05675 5056 ft 254 kts 184°
2026-05-06 17:17 41.15028 2.05598 5776 ft 261 kts 184°
2026-05-06 17:18 41.13213 2.05560 6562 ft 265 kts 178°
2026-05-06 17:18 41.11491 2.06483 7163 ft 282 kts 140°
2026-05-06 17:18 41.10422 2.08713 7672 ft 298 kts 106°
2026-05-06 17:18 41.10317 2.11423 8443 ft 299 kts 76°
2026-05-06 17:19 41.11033 2.13973 9181 ft 301 kts 65°
2026-05-06 17:19 41.11875 2.16549 9930 ft 304 kts 65°
2026-05-06 17:19 41.12736 2.19085 10625 ft 307 kts 64°
2026-05-06 17:19 41.13652 2.21711 11002 ft 322 kts 64°
2026-05-06 17:20 41.14611 2.24442 11430 ft 334 kts 64°
2026-05-06 17:20 41.15572 2.27291 12123 ft 337 kts 65°
2026-05-06 17:20 41.16484 2.30139 12828 ft 339 kts 66°
2026-05-06 17:20 41.17384 2.33018 13563 ft 339 kts 66°
2026-05-06 17:21 41.18301 2.35865 14232 ft 341 kts 65°
2026-05-06 17:21 41.19258 2.38795 14799 ft 346 kts 65°
2026-05-06 17:21 41.20219 2.41735 15344 ft 351 kts 66°
2026-05-06 17:21 41.21198 2.44734 15874 ft 357 kts 66°
2026-05-06 17:22 41.22180 2.47744 16378 ft 362 kts 66°
2026-05-06 17:22 41.23177 2.50807 16886 ft 367 kts 66°
2026-05-06 17:22 41.24196 2.53944 17391 ft 372 kts 66°
2026-05-06 17:22 41.25222 2.57102 17886 ft 377 kts 66°
2026-05-06 17:23 41.26260 2.60305 18373 ft 381 kts 66°
2026-05-06 17:23 41.27319 2.63578 18804 ft 385 kts 66°
2026-05-06 17:23 41.28370 2.66830 19001 ft 389 kts 67°
2026-05-06 17:23 41.29453 2.70177 19413 ft 394 kts 67°
2026-05-06 17:24 41.30525 2.73503 19953 ft 395 kts 67°
2026-05-06 17:24 41.31601 2.76840 20453 ft 397 kts 68°
2026-05-06 17:24 41.32688 2.80222 20871 ft 402 kts 68°
2026-05-06 17:24 41.33793 2.83661 21298 ft 406 kts 68°
2026-05-06 17:25 41.34901 2.87112 21743 ft 409 kts 68°
2026-05-06 17:25 41.36015 2.90593 22167 ft 413 kts 68°
2026-05-06 17:25 41.37142 2.94112 22579 ft 416 kts 68°
2026-05-06 17:25 41.38277 2.97660 22973 ft 420 kts 68°
2026-05-06 17:26 41.39425 3.01252 23360 ft 424 kts 68°
2026-05-06 17:26 41.40580 3.04875 23739 ft 428 kts 68°
2026-05-06 17:26 41.41735 3.08506 24132 ft 431 kts 68°
2026-05-06 17:26 41.42912 3.12205 24536 ft 434 kts 68°
2026-05-06 17:27 41.44082 3.15893 24914 ft 437 kts 68°
2026-05-06 17:27 41.45253 3.19585 25299 ft 439 kts 68°
2026-05-06 17:27 41.46448 3.23362 25668 ft 442 kts 68°
2026-05-06 17:27 41.47650 3.27159 26034 ft 445 kts 68°
2026-05-06 17:28 41.48842 3.30932 26408 ft 447 kts 68°
2026-05-06 17:28 41.50042 3.34737 26779 ft 449 kts 68°
2026-05-06 17:28 41.51250 3.38576 27121 ft 452 kts 68°
2026-05-06 17:28 41.52474 3.42472 27450 ft 455 kts 68°
2026-05-06 17:29 41.53653 3.46358 27797 ft 456 kts 71°
2026-05-06 17:29 41.54668 3.50414 28120 ft 458 kts 76°
2026-05-06 17:29 41.55456 3.54485 28435 ft 460 kts 79°
2026-05-06 17:29 41.56146 3.58679 28759 ft 462 kts 80°
2026-05-06 17:30 41.56807 3.62843 29096 ft 464 kts 81°
2026-05-06 17:30 41.57479 3.67063 29399 ft 467 kts 81°
2026-05-06 17:30 41.58160 3.71292 29698 ft 469 kts 81°
2026-05-06 17:30 41.58851 3.75546 30003 ft 471 kts 81°
2026-05-06 17:31 41.59550 3.79868 30300 ft 474 kts 81°
2026-05-06 17:31 41.60243 3.84130 30568 ft 476 kts 81°
2026-05-06 17:31 41.60940 3.88437 30849 ft 478 kts 81°
2026-05-06 17:31 41.61644 3.92793 31124 ft 480 kts 81°
2026-05-06 17:32 41.62348 3.97153 31403 ft 482 kts 81°
2026-05-06 17:32 41.63048 4.01501 31695 ft 484 kts 81°
2026-05-06 17:32 41.63754 4.05906 31960 ft 486 kts 81°
2026-05-06 17:32 41.64465 4.10353 32221 ft 488 kts 81°
2026-05-06 17:33 41.65166 4.14732 32476 ft 489 kts 81°
2026-05-06 17:33 41.65871 4.19165 32740 ft 491 kts 81°
2026-05-06 17:33 41.66582 4.23634 32995 ft 493 kts 81°
2026-05-06 17:33 41.67293 4.28122 33241 ft 495 kts 81°
2026-05-06 17:34 41.68005 4.32634 33477 ft 497 kts 81°
2026-05-06 17:34 41.68715 4.37151 33721 ft 498 kts 81°
2026-05-06 17:34 41.69426 4.41669 34034 ft 498 kts 81°
2026-05-06 17:34 41.70128 4.46136 34387 ft 496 kts 81°
2026-05-06 17:35 41.70831 4.50649 34684 ft 495 kts 81°
2026-05-06 17:35 41.71535 4.55144 34941 ft 495 kts 80°
2026-05-06 17:35 41.72449 4.59585 35186 ft 496 kts 73°
2026-05-06 17:36 41.75340 4.67917 35644 ft 497 kts 59°
2026-05-06 17:36 41.77301 4.71706 35842 ft 496 kts 51°
2026-05-06 17:36 41.79556 4.75184 36007 ft 495 kts 46°
2026-05-06 17:36 41.81920 4.78489 36150 ft 496 kts 45°
2026-05-06 17:37 41.84322 4.81762 36403 ft 494 kts 44°
2026-05-06 17:37 41.86730 4.85033 36675 ft 493 kts 44°
2026-05-06 17:37 41.89125 4.88298 36960 ft 491 kts 44°
2026-05-06 17:37 41.91522 4.91578 37238 ft 489 kts 44°
2026-05-06 17:38 41.93861 4.94794 37503 ft 486 kts 44°
2026-05-06 17:38 41.96207 4.98028 37794 ft 484 kts 44°
2026-05-06 17:38 41.98541 5.01251 37954 ft 485 kts 44°
2026-05-06 17:38 42.00918 5.04541 37958 ft 489 kts 44°
2026-05-06 17:39 42.05662 5.11115 37958 ft 498 kts 45°
2026-05-06 17:39 42.10492 5.17825 37955 ft 503 kts 44°
2026-05-06 17:40 42.15364 5.24613 37957 ft 507 kts 45°
2026-05-06 17:40 42.20267 5.31457 37956 ft 506 kts 45°
2026-05-06 17:41 42.25109 5.38236 37954 ft 506 kts 44°
2026-05-06 17:41 42.30005 5.45102 37955 ft 506 kts 45°
2026-05-06 17:42 42.34848 5.51912 37947 ft 506 kts 45°
2026-05-06 17:42 42.39697 5.58748 37955 ft 506 kts 45°
2026-05-06 17:43 42.44567 5.65630 37949 ft 506 kts 45°
2026-05-06 17:43 42.49399 5.72470 37956 ft 506 kts 45°
2026-05-06 17:44 42.54256 5.79366 37958 ft 505 kts 45°
2026-05-06 17:44 42.59064 5.86208 37950 ft 505 kts 46°
2026-05-06 17:45 42.63901 5.93107 37942 ft 505 kts 46°
2026-05-06 17:45 42.68724 6.00005 37955 ft 505 kts 46°
2026-05-06 17:46 42.73526 6.06889 37954 ft 505 kts 45°
2026-05-06 17:46 42.78346 6.13812 37941 ft 505 kts 46°
2026-05-06 17:47 42.83154 6.20737 37943 ft 505 kts 46°
2026-05-06 17:47 42.87963 6.27682 37949 ft 505 kts 46°
2026-05-06 17:48 42.92762 6.34627 37920 ft 505 kts 46°
2026-05-06 17:48 42.97554 6.41580 37927 ft 505 kts 46°
2026-05-06 17:49 43.02387 6.48607 37916 ft 505 kts 46°
2026-05-06 17:49 43.07165 6.55575 37918 ft 505 kts 46°
2026-05-06 17:50 43.11962 6.62588 37921 ft 505 kts 46°
2026-05-06 17:50 43.16744 6.69591 37901 ft 504 kts 46°
2026-05-06 17:51 43.21556 6.76657 37884 ft 505 kts 47°
2026-05-06 17:51 43.26323 6.83679 37884 ft 505 kts 47°
2026-05-06 17:52 43.31084 6.90708 37888 ft 505 kts 46°
2026-05-06 17:52 43.35869 6.97788 37890 ft 504 kts 46°
2026-05-06 17:53 43.40607 7.04813 37888 ft 504 kts 47°
2026-05-06 17:53 43.45360 7.11882 37869 ft 504 kts 47°
2026-05-06 17:54 43.50111 7.18967 37881 ft 504 kts 47°
2026-05-06 17:54 43.54851 7.26053 37891 ft 504 kts 47°
2026-05-06 17:55 43.59560 7.33109 37877 ft 504 kts 47°
2026-05-06 17:55 43.64025 7.40532 37878 ft 504 kts 54°
2026-05-06 17:56 43.68083 7.48385 37886 ft 504 kts 55°
2026-05-06 17:56 43.72107 7.56288 37880 ft 504 kts 55°
2026-05-06 17:57 43.76163 7.64215 37860 ft 504 kts 55°
2026-05-06 17:57 43.80375 7.71912 37878 ft 504 kts 50°
2026-05-06 17:58 43.85233 7.78889 37869 ft 504 kts 41°
2026-05-06 17:58 43.90640 7.84991 37885 ft 504 kts 36°
2026-05-06 17:59 43.96091 7.91146 37864 ft 505 kts 43°
2026-05-06 17:59 44.01024 7.97992 37870 ft 505 kts 46°
2026-05-06 18:00 44.05909 8.05041 37867 ft 505 kts 46°
2026-05-06 18:00 44.10757 8.12033 37854 ft 505 kts 46°
2026-05-06 18:01 44.15641 8.19068 37837 ft 505 kts 46°
2026-05-06 18:01 44.20526 8.26109 37862 ft 504 kts 46°
2026-05-06 18:02 44.25374 8.33116 37855 ft 504 kts 46°
2026-05-06 18:02 44.30201 8.40112 37863 ft 505 kts 46°
2026-05-06 18:03 44.35055 8.47161 37853 ft 505 kts 46°
2026-05-06 18:03 44.39915 8.54241 37862 ft 504 kts 46°
2026-05-06 18:04 44.44772 8.61332 37856 ft 505 kts 46°
2026-05-06 18:04 44.49629 8.68440 37861 ft 504 kts 46°
2026-05-06 18:05 44.54472 8.75551 37881 ft 505 kts 46°
2026-05-06 18:05 44.59295 8.82647 37870 ft 505 kts 46°
2026-05-06 18:06 44.64133 8.89787 37880 ft 505 kts 47°
2026-05-06 18:06 44.68956 8.96918 37866 ft 505 kts 46°
2026-05-06 18:07 44.73756 9.04039 37865 ft 505 kts 47°
2026-05-06 18:07 44.78593 9.11230 37867 ft 504 kts 46°
2026-05-06 18:08 44.83379 9.18364 37870 ft 505 kts 46°
2026-05-06 18:08 44.88191 9.25558 37868 ft 505 kts 47°
2026-05-06 18:09 44.92986 9.32742 37857 ft 506 kts 47°
2026-05-06 18:09 44.97780 9.39944 37863 ft 505 kts 47°
2026-05-06 18:10 45.02566 9.47154 37858 ft 505 kts 47°
2026-05-06 18:10 45.07370 9.54411 37836 ft 505 kts 46°
2026-05-06 18:11 45.12151 9.61650 37844 ft 505 kts 46°
2026-05-06 18:11 45.16909 9.68876 37837 ft 505 kts 47°
2026-05-06 18:12 45.21863 9.75873 37835 ft 506 kts 43°
2026-05-06 18:12 45.27095 9.82574 37859 ft 505 kts 41°
2026-05-06 18:13 45.32289 9.89205 37840 ft 505 kts 42°
2026-05-06 18:13 45.37485 9.95885 37842 ft 506 kts 42°
2026-05-06 18:14 45.42675 10.02588 37887 ft 505 kts 41°
2026-05-06 18:14 45.47883 10.09328 37867 ft 505 kts 41°
2026-05-06 18:15 45.53047 10.16033 37873 ft 505 kts 42°
2026-05-06 18:15 45.58238 10.22796 37860 ft 505 kts 42°
2026-05-06 18:16 45.63401 10.29534 37865 ft 505 kts 42°
2026-05-06 18:16 45.68570 10.36299 37874 ft 505 kts 42°
2026-05-06 18:17 45.73719 10.43059 37886 ft 505 kts 41°
2026-05-06 18:17 45.78880 10.49844 37616 ft 505 kts 42°
2026-05-06 18:18 45.81463 10.53250 37154 ft 507 kts 42°
2026-05-06 18:18 45.84045 10.56659 36913 ft 507 kts 42°
2026-05-06 18:18 45.89256 10.63516 36917 ft 510 kts 40°
2026-05-06 18:19 45.94858 10.69769 36900 ft 509 kts 32°
2026-05-06 18:19 45.97908 10.72217 36894 ft 506 kts 21°
2026-05-06 18:19 46.01210 10.73918 36898 ft 500 kts 11°
2026-05-06 18:20 46.07982 10.75923 36907 ft 498 kts
2026-05-06 18:20 46.14762 10.77744 36901 ft 497 kts
2026-05-06 18:21 46.21549 10.79640 36906 ft 497 kts
2026-05-06 18:21 46.28349 10.81591 36917 ft 498 kts
2026-05-06 18:22 46.35126 10.83550 36919 ft 498 kts
2026-05-06 18:22 46.41873 10.85511 36902 ft 498 kts
2026-05-06 18:23 46.48647 10.87475 36931 ft 497 kts
2026-05-06 18:23 46.55400 10.89446 36918 ft 497 kts
2026-05-06 18:24 46.62167 10.91426 36920 ft 497 kts
2026-05-06 18:24 46.68926 10.93402 36941 ft 498 kts
2026-05-06 18:25 46.75694 10.95394 36824 ft 497 kts
2026-05-06 18:25 46.79113 10.96399 36278 ft 500 kts
2026-05-06 18:25 46.82513 10.97399 35798 ft 503 kts
2026-05-06 18:26 46.85918 10.98403 35268 ft 506 kts
2026-05-06 18:26 46.89402 10.99433 34734 ft 510 kts
2026-05-06 18:26 46.92847 11.00451 34107 ft 514 kts
2026-05-06 18:26 46.96374 11.01278 33385 ft 511 kts
2026-05-06 18:27 46.99912 11.01840 32666 ft 509 kts
2026-05-06 18:27 47.03410 11.02323 31963 ft 508 kts
2026-05-06 18:27 47.06908 11.02804 31253 ft 507 kts
2026-05-06 18:27 47.10422 11.03302 30546 ft 505 kts
2026-05-06 18:28 47.13897 11.03815 29828 ft 503 kts
2026-05-06 18:28 47.17349 11.04335 29113 ft 501 kts
2026-05-06 18:28 47.20779 11.04854 28408 ft 498 kts
2026-05-06 18:28 47.24215 11.05377 27695 ft 495 kts
2026-05-06 18:29 47.27625 11.05897 26984 ft 493 kts
2026-05-06 18:29 47.31041 11.06422 26273 ft 490 kts
2026-05-06 18:29 47.34390 11.06934 25603 ft 486 kts
2026-05-06 18:29 47.37741 11.07448 24989 ft 481 kts
2026-05-06 18:30 47.41032 11.07955 24278 ft 478 kts
2026-05-06 18:30 47.44360 11.08466 23558 ft 475 kts
2026-05-06 18:30 47.47588 11.08963 22861 ft 472 kts
2026-05-06 18:30 47.50843 11.09467 22157 ft 469 kts
2026-05-06 18:31 47.54095 11.09979 21447 ft 467 kts
2026-05-06 18:31 47.57242 11.11077 20759 ft 467 kts 18°
2026-05-06 18:31 47.60149 11.13152 20060 ft 465 kts 29°
2026-05-06 18:31 47.62907 11.15570 19355 ft 462 kts 31°
2026-05-06 18:32 47.65607 11.18017 18699 ft 459 kts 31°
2026-05-06 18:32 47.68337 11.20461 17985 ft 456 kts 31°
2026-05-06 18:32 47.71061 11.22859 17309 ft 453 kts 30°
2026-05-06 18:32 47.73805 11.25037 16650 ft 450 kts 25°
2026-05-06 18:33 47.76657 11.26831 15953 ft 445 kts 20°
2026-05-06 18:33 47.79496 11.28416 15395 ft 428 kts 19°
2026-05-06 18:33 47.82233 11.29901 14945 ft 408 kts 19°
2026-05-06 18:33 47.84869 11.31342 14779 ft 398 kts 19°
2026-05-06 18:34 47.87447 11.32711 14773 ft 398 kts 15°
2026-05-06 18:34 47.90099 11.33573 14784 ft 386 kts
2026-05-06 18:34 47.92752 11.33914 14783 ft 383 kts
2026-05-06 18:34 47.95407 11.34109 14779 ft 383 kts
2026-05-06 18:35 47.98076 11.34389 14777 ft 385 kts
2026-05-06 18:35 48.00553 11.35817 14774 ft 384 kts 32°
2026-05-06 18:35 48.02629 11.38285 14593 ft 377 kts 42°
2026-05-06 18:35 48.04552 11.40933 14042 ft 377 kts 43°
2026-05-06 18:36 48.06469 11.43531 13527 ft 375 kts 41°
2026-05-06 18:36 48.08436 11.46070 13092 ft 371 kts 40°
2026-05-06 18:36 48.10414 11.48529 12628 ft 368 kts 39°
2026-05-06 18:36 48.12393 11.50937 12158 ft 364 kts 39°
2026-05-06 18:37 48.14337 11.53279 11698 ft 360 kts 39°
2026-05-06 18:37 48.16283 11.55613 11228 ft 357 kts 39°
2026-05-06 18:37 48.18214 11.57930 10759 ft 354 kts 39°
2026-05-06 18:37 48.20144 11.60245 10298 ft 351 kts 39°
2026-05-06 18:38 48.22011 11.62572 9818 ft 347 kts 45°
2026-05-06 18:38 48.23300 11.65550 9277 ft 339 kts 73°
2026-05-06 18:38 48.23720 11.68933 8872 ft 329 kts 86°
2026-05-06 18:38 48.23917 11.72308 8665 ft 317 kts 87°
2026-05-06 18:39 48.24108 11.75518 8467 ft 307 kts 86°
2026-05-06 18:39 48.24333 11.78651 8260 ft 297 kts 85°
2026-05-06 18:39 48.24584 11.81705 7922 ft 293 kts 84°
2026-05-06 18:40 48.25128 11.87712 7128 ft 290 kts 83°
2026-05-06 18:40 48.25407 11.90647 6712 ft 283 kts 83°
2026-05-06 18:40 48.25684 11.93519 6291 ft 271 kts 82°
2026-05-06 18:40 48.25950 11.96248 5874 ft 261 kts 82°
2026-05-06 18:41 48.26208 11.98893 5452 ft 252 kts 82°
2026-05-06 18:41 48.26546 12.01410 5033 ft 245 kts 76°
2026-05-06 18:41 48.26979 12.03846 4623 ft 243 kts 75°
2026-05-06 18:41 48.27427 12.06279 4205 ft 241 kts 74°
2026-05-06 18:42 48.27960 12.08643 3924 ft 238 kts 60°
2026-05-06 18:42 48.29096 12.10345 3900 ft 231 kts 28°
2026-05-06 18:42 48.30639 12.10878 3918 ft 233 kts
2026-05-06 18:42 48.32281 12.10725 3925 ft 234 kts 355°
2026-05-06 18:43 48.33833 12.10279 3893 ft 227 kts 336°
2026-05-06 18:43 48.35036 12.08785 3906 ft 228 kts 305°
2026-05-06 18:43 48.35783 12.06683 4022 ft 225 kts 295°
2026-05-06 18:43 48.36153 12.04433 3954 ft 221 kts 275°
2026-05-06 18:44 48.36138 12.02126 3943 ft 220 kts 267°
2026-05-06 18:44 48.36005 11.99834 3899 ft 221 kts 264°
2026-05-06 18:44 48.35826 11.97532 3676 ft 218 kts 263°
2026-05-06 18:44 48.35641 11.95309 3382 ft 211 kts 263°
2026-05-06 18:45 48.35473 11.93219 3152 ft 195 kts 263°
2026-05-06 18:45 48.35316 11.91252 2894 ft 186 kts 264°
2026-05-06 18:45 48.35164 11.89364 2639 ft 178 kts 263°
2026-05-06 18:45 48.35017 11.87595 2413 ft 165 kts 263°
2026-05-06 18:46 48.34885 11.85951 2195 ft 151 kts 265°
2026-05-06 18:46 48.34771 11.84381 2014 ft 151 kts 265°
2026-05-06 18:46 48.34661 11.82816 1837 ft 149 kts 264°
2026-05-06 18:46 48.34539 11.81275 1624 ft 148 kts 264°
2026-05-06 18:47 48.34422 11.79746 1491 ft 138 kts 265°
2026-05-06 18:47 48.34331 11.78518 1482 ft 96 kts 263°
2026-05-06 18:47 48.34274 11.77782 1484 ft 51 kts 263°
2026-05-06 18:47 48.34255 11.77354 1486 ft 32 kts 282°
2026-05-06 18:48 48.34311 11.77079 1486 ft 21 kts 294°
2026-05-06 18:48 48.34362 11.76902 1486 ft 16 kts 293°
2026-05-06 18:48 48.34411 11.76749 1487 ft 16 kts 311°
2026-05-06 18:48 48.34511 11.76698 1486 ft 15 kts 352°
2026-05-06 18:49 48.34576 11.76785 1486 ft 14 kts 78°
2026-05-06 18:49 48.34590 11.76958 1486 ft 18 kts 84°
2026-05-06 18:49 48.34605 11.77163 1485 ft 21 kts 84°
2026-05-06 18:49 48.34623 11.77394 1485 ft 23 kts 84°
2026-05-06 18:50 48.34642 11.77651 1484 ft 25 kts 83°
2026-05-06 18:50 48.34663 11.77927 1483 ft 27 kts 83°
2026-05-06 18:50 48.34687 11.78223 1483 ft 28 kts 84°
2026-05-06 18:50 48.34710 11.78524 1482 ft 29 kts 83°
2026-05-06 18:51 48.34733 11.78821 1481 ft 27 kts 84°
2026-05-06 18:51 48.34754 11.79099 1479 ft 26 kts 83°
2026-05-06 18:51 48.34775 11.79365 1478 ft 21 kts 83°
2026-05-06 18:51 48.34787 11.79521 1477 ft 9 kts 76°
2026-05-06 18:52 48.34832 11.79561 1477 ft 7 kts 358°
2026-05-06 18:52 48.34876 11.79555 1477 ft 3 kts 354°
2026-05-06 18:52 48.34898 11.79551 1477 ft 0 kts 353°
2026-05-06 18:56 48.34899 11.79551 1477 ft 0 kts 353°
2026-05-06 18:56 48.34925 11.79546 1477 ft 6 kts 353°
2026-05-06 18:56 48.34989 11.79535 1477 ft 11 kts 354°
2026-05-06 18:56 48.35074 11.79543 1476 ft 13 kts 39°
2026-05-06 18:57 48.35101 11.79703 1475 ft 18 kts 84°
2026-05-06 18:57 48.35116 11.79905 1475 ft 20 kts 84°
2026-05-06 18:57 48.35131 11.80105 1474 ft 12 kts 83°
2026-05-06 18:57 48.35163 11.80196 1474 ft 9 kts 37°
2026-05-06 18:58 48.35231 11.80214 1474 ft 10 kts 354°
2026-05-06 18:58 48.35310 11.80201 1473 ft 11 kts 354°
2026-05-06 18:58 48.35395 11.80180 1473 ft 12 kts 342°
2026-05-06 18:58 48.35486 11.80157 1472 ft 13 kts 353°
2026-05-06 18:59 48.35585 11.80141 1471 ft 14 kts 354°
2026-05-06 18:59 48.35683 11.80094 1470 ft 15 kts 337°
2026-05-06 18:59 48.35741 11.80074 1470 ft 6 kts 343°
2026-05-06 18:59 48.35749 11.80012 1470 ft 6 kts 266°
2026-05-06 19:00 48.35746 11.79952 1470 ft 4 kts 263°
2026-05-06 19:00 48.35743 11.79923 1470 ft 1 kts 263°
2026-05-06 19:00 48.35743 11.79919 1470 ft 0 kts 263°